When you browse on this site, cookies collect data to enhance your experience and personalize the content and advertising you see.
Visit our Privacy Policy to learn more. By continuing to use the site, you agree to this use of cookies and data.
  • In United Kingdom
  • List of Countries
  • For 7 days
  • Water Temperature
  • Satellite Maps
  • Weather Map
  • Weather Widgets
  • user-avatar
    Login

    Hourly Weather Khujayli

    Today, 16 June, Sunday

    Time Temperature Precipitation Wind Pressure Humidity
    00:00 +24°C° 0 mm 3 mps 751 mmHg 20%
    01:00 +22°C° 0 mm 3 mps 751 mmHg 20%
    02:00 +23°C° 0 mm 2 mps 751 mmHg 21%
    03:00 +21°C° 0 mm 2 mps 752 mmHg 23%
    04:00 +21°C° 0 mm 2 mps 752 mmHg 24%
    05:00 +23°C° 0 mm 2 mps 752 mmHg 23%
    06:00 +25°C° 0 mm 2 mps 752 mmHg 22%
    07:00 +27°C° 0 mm 2 mps 752 mmHg 20%
    08:00 +28°C° 0 mm 2 mps 752 mmHg 19%
    09:00 +29°C° 0 mm 2 mps 752 mmHg 17%
    10:00 +31°C° 0 mm 1 mps 753 mmHg 16%
    11:00 +32°C° 0 mm 1 mps 752 mmHg 15%
    12:00 +33°C° 0 mm 1 mps 752 mmHg 15%
    13:00 +32°C° 0 mm 0 mps 752 mmHg 14%
    14:00 +34°C° 0 mm 1 mps 751 mmHg 14%
    15:00 +35°C° 0 mm 1 mps 751 mmHg 13%
    16:00 +35°C° 0 mm 1 mps 751 mmHg 13%
    17:00 +35°C° 0 mm 1 mps 750 mmHg 14%
    18:00 +34°C° 0 mm 1 mps 750 mmHg 15%
    19:00 +33°C° 0 mm 1 mps 750 mmHg 16%
    20:00 +32°C° 0 mm 1 mps 750 mmHg 17%
    21:00 +30°C° 0 mm 1 mps 750 mmHg 19%
    22:00 +28°C° 0 mm 2 mps 750 mmHg 20%
    23:00 +28°C° 0 mm 3 mps 750 mmHg 21%

    Tomorrow, 17 June, Monday

    Time Temperature Precipitation Wind Pressure Humidity
    00:00 +28°C° 0 mm 3 mps 749 mmHg 22%
    01:00 +28°C° 0 mm 4 mps 749 mmHg 23%
    02:00 +27°C° 0 mm 4 mps 749 mmHg 23%
    03:00 +27°C° 0 mm 4 mps 749 mmHg 24%
    04:00 +26°C° 0 mm 4 mps 749 mmHg 25%
    05:00 +28°C° 0 mm 5 mps 749 mmHg 23%
    06:00 +29°C° 0 mm 5 mps 749 mmHg 21%
    07:00 +32°C° 0 mm 6 mps 749 mmHg 19%
    08:00 +34°C° 0 mm 5 mps 749 mmHg 17%
    09:00 +35°C° 0 mm 5 mps 750 mmHg 15%
    10:00 +37°C° 0 mm 4 mps 750 mmHg 13%
    11:00 +38°C° 0 mm 4 mps 749 mmHg 12%
    12:00 +38°C° 0 mm 3 mps 749 mmHg 11%
    13:00 +39°C° 0 mm 2 mps 749 mmHg 10%
    14:00 +39°C° 0 mm 2 mps 748 mmHg 10%
    15:00 +40°C° 0 mm 2 mps 748 mmHg 10%
    16:00 +40°C° 0 mm 2 mps 747 mmHg 9%
    17:00 +39°C° 0 mm 2 mps 747 mmHg 10%
    18:00 +38°C° 0 mm 2 mps 747 mmHg 11%
    19:00 +37°C° 0 mm 2 mps 747 mmHg 12%
    20:00 +36°C° 0 mm 3 mps 747 mmHg 14%
    21:00 +34°C° 0 mm 4 mps 747 mmHg 16%
    22:00 +32°C° 0 mm 4 mps 747 mmHg 19%
    23:00 +32°C° 0 mm 5 mps 747 mmHg 21%

    Day after tomorrow, 18 June, Tuesday

    Time Temperature Precipitation Wind Pressure Humidity
    00:00 +30°C° 0 mm 5 mps 747 mmHg 23%
    01:00 +30°C° 0 mm 5 mps 747 mmHg 25%
    02:00 +29°C° 0 mm 6 mps 747 mmHg 26%
    03:00 +29°C° 0 mm 6 mps 748 mmHg 27%
    04:00 +28°C° 0 mm 6 mps 748 mmHg 28%
    05:00 +29°C° 0 mm 6 mps 748 mmHg 26%
    06:00 +30°C° 0 mm 6 mps 748 mmHg 24%
    07:00 +32°C° 0 mm 7 mps 749 mmHg 22%
    08:00 +34°C° 0 mm 6 mps 749 mmHg 19%
    09:00 +36°C° 0 mm 6 mps 749 mmHg 17%
    10:00 +39°C° 0 mm 5 mps 749 mmHg 15%
    11:00 +40°C° 0 mm 4 mps 749 mmHg 13%
    12:00 +40°C° 0 mm 3 mps 748 mmHg 12%
    13:00 +41°C° 0 mm 2 mps 748 mmHg 11%
    14:00 +42°C° 0 mm 3 mps 748 mmHg 11%
    15:00 +42°C° 0 mm 4 mps 747 mmHg 11%
    16:00 +42°C° 0 mm 4 mps 747 mmHg 11%
    17:00 +40°C° 0 mm 7 mps 747 mmHg 13%
    18:00 +38°C° 0 mm 9 mps 747 mmHg 15%
    19:00 +36°C° 0 mm 11 mps 747 mmHg 18%
    20:00 +33°C° 0 mm 10 mps 748 mmHg 19%
    21:00 +32°C° 0 mm 9 mps 748 mmHg 21%
    22:00 +29°C° 0 mm 8 mps 748 mmHg 23%
    23:00 +29°C° 0 mm 7 mps 748 mmHg 23%

    19 June, Wednesday

    Time Temperature Precipitation Wind Pressure Humidity
    00:00 +28°C° 0 mm 7 mps 748 mmHg 23%
    01:00 +28°C° 0 mm 7 mps 748 mmHg 23%
    02:00 +28°C° 0 mm 7 mps 748 mmHg 23%
    03:00 +28°C° 0 mm 6 mps 748 mmHg 23%
    04:00 +28°C° 0 mm 6 mps 748 mmHg 23%
    05:00 +29°C° 0 mm 5 mps 748 mmHg 22%
    06:00 +30°C° 0 mm 5 mps 748 mmHg 22%
    07:00 +32°C° 0 mm 4 mps 748 mmHg 22%
    08:00 +33°C° 0 mm 4 mps 748 mmHg 20%
    09:00 +35°C° 0 mm 4 mps 748 mmHg 19%
    10:00 +36°C° 0 mm 4 mps 748 mmHg 17%
    11:00 +37°C° 0 mm 4 mps 748 mmHg 17%
    12:00 +37°C° 0 mm 4 mps 748 mmHg 16%
    13:00 +38°C° 0 mm 4 mps 748 mmHg 16%
    14:00 +38°C° 0 mm 4 mps 747 mmHg 16%
    15:00 +37°C° 0 mm 4 mps 747 mmHg 17%
    16:00 +37°C° 0 mm 3 mps 747 mmHg 18%
    17:00 +36°C° 0 mm 6 mps 747 mmHg 19%
    18:00 +34°C° 0 mm 8 mps 747 mmHg 20%
    19:00 +32°C° 0 mm 10 mps 747 mmHg 21%
    20:00 +31°C° 0 mm 9 mps 747 mmHg 24%
    21:00 +28°C° 0 mm 9 mps 748 mmHg 27%
    22:00 +27°C° 0 mm 8 mps 748 mmHg 31%
    23:00 +27°C° 0 mm 7 mps 748 mmHg 31%

    20 June, Thursday

    Time Temperature Precipitation Wind Pressure Humidity
    00:00 +26°C° 0 mm 7 mps 748 mmHg 32%
    01:00 +24°C° 0 mm 6 mps 748 mmHg 33%
    02:00 +24°C° 0 mm 6 mps 748 mmHg 33%
    03:00 +25°C° 0 mm 5 mps 747 mmHg 32%
    04:00 +25°C° 0 mm 5 mps 747 mmHg 31%
    05:00 +26°C° 0 mm 5 mps 747 mmHg 28%
    06:00 +28°C° 0 mm 5 mps 748 mmHg 25%
    07:00 +29°C° 0 mm 5 mps 748 mmHg 22%
    08:00 +32°C° 0 mm 5 mps 748 mmHg 19%
    09:00 +35°C° 0 mm 5 mps 748 mmHg 16%
    10:00 +37°C° 0 mm 5 mps 748 mmHg 13%
    11:00 +39°C° 0 mm 5 mps 748 mmHg 12%
    12:00 +40°C° 0 mm 6 mps 747 mmHg 12%
    13:00 +41°C° 0 mm 6 mps 747 mmHg 12%
    14:00 +41°C° 0 mm 7 mps 747 mmHg 12%
    15:00 +40°C° 0 mm 8 mps 747 mmHg 12%
    16:00 +40°C° 0 mm 9 mps 746 mmHg 12%
    17:00 +38°C° 0 mm 10 mps 747 mmHg 14%
    18:00 +36°C° 0 mm 10 mps 747 mmHg 16%
    19:00 +33°C° 0 mm 10 mps 747 mmHg 18%
    20:00 +32°C° 0 mm 9 mps 747 mmHg 21%
    21:00 +29°C° 0 mm 8 mps 747 mmHg 23%
    22:00 +28°C° 0 mm 7 mps 748 mmHg 25%
    23:00 +28°C° 0 mm 7 mps 748 mmHg 25%

    21 June, Friday

    Time Temperature Precipitation Wind Pressure Humidity
    00:00 +28°C° 0 mm 7 mps 747 mmHg 25%
    01:00 +27°C° 0 mm 6 mps 747 mmHg 26%
    02:00 +27°C° 0 mm 6 mps 748 mmHg 24%
    03:00 +27°C° 0 mm 6 mps 748 mmHg 22%
    04:00 +27°C° 0 mm 5 mps 748 mmHg 21%
    05:00 +28°C° 0 mm 6 mps 748 mmHg 20%
    06:00 +30°C° 0 mm 6 mps 749 mmHg 19%
    07:00 +32°C° 0 mm 7 mps 749 mmHg 18%
    08:00 +34°C° 0 mm 7 mps 749 mmHg 16%
    09:00 +35°C° 0 mm 7 mps 749 mmHg 14%
    10:00 +38°C° 0 mm 7 mps 750 mmHg 12%
    11:00 +39°C° 0 mm 7 mps 749 mmHg 12%
    12:00 +39°C° 0 mm 7 mps 749 mmHg 12%
    13:00 +40°C° 0 mm 6 mps 749 mmHg 12%
    14:00 +40°C° 0 mm 6 mps 749 mmHg 12%
    15:00 +40°C° 0 mm 6 mps 749 mmHg 12%
    16:00 +40°C° 0 mm 6 mps 749 mmHg 12%
    17:00 +39°C° 0 mm 6 mps 749 mmHg 13%
    18:00 +36°C° 0 mm 7 mps 749 mmHg 14%
    19:00 +35°C° 0 mm 8 mps 749 mmHg 16%
    20:00 +34°C° 0 mm 7 mps 749 mmHg 18%
    21:00 +32°C° 0 mm 5 mps 750 mmHg 20%
    22:00 +30°C° 0 mm 4 mps 750 mmHg 21%
    23:00 +29°C° 0 mm 4 mps 750 mmHg 22%
    Show more